This is the latest recevied weather packets stored in our database for station/object OE3PDB-3. If no packets are shown the sender has not sent any weather packets the latest 10 day(s).
| Time | Temp. | Humidity | Pressure | Rain* | Wind** | Luminosity | Snow |
|---|---|---|---|---|---|---|---|
| 1777645249 | 25° C | 30% | 1025.4 hPa | 0 mm | - | - | - |
| 1777644649 | 25° C | 31% | 1025.2 hPa | 0 mm | - | - | - |
| 1777644049 | 24.44° C | 30% | 1025.4 hPa | 0 mm | - | - | - |
| 1777643449 | 23.89° C | 31% | 1025.6 hPa | 0 mm | - | - | - |
| 1777642849 | 22.78° C | 32% | 1025.6 hPa | 0 mm | - | - | - |
| 1777642249 | 22.22° C | 33% | 1025.8 hPa | 0 mm | - | - | - |
| 1777641649 | 21.11° C | 33% | 1025.9 hPa | 0 mm | - | - | - |
| 1777641049 | 22.22° C | 32% | 1026.1 hPa | 0 mm | - | - | - |
| 1777639850 | 21.67° C | 33% | 1026.2 hPa | 0 mm | - | - | - |
| 1777639250 | 21.11° C | 35% | 1026.4 hPa | 0 mm | - | - | - |
| 1777638650 | 20.56° C | 35% | 1026.4 hPa | 0 mm | - | - | - |
| 1777638050 | 20° C | 37% | 1026.4 hPa | 0 mm | - | - | - |
| 1777636850 | 18.33° C | 39% | 1026.8 hPa | 0 mm | - | - | - |
| 1777636250 | 17.22° C | 40% | 1026.8 hPa | 0 mm | - | - | - |
| 1777635650 | 17.22° C | 40% | 1027 hPa | 0 mm | - | - | - |
| 1777635050 | 16.67° C | 41% | 1027.1 hPa | 0 mm | - | - | - |
| 1777634450 | 16.11° C | 41% | 1027 hPa | 0 mm | - | - | - |
| 1777633850 | 16.11° C | 40% | 1027.2 hPa | 0 mm | - | - | - |
| 1777633250 | 16.11° C | 41% | 1027.4 hPa | 0 mm | - | - | - |
| 1777632050 | 15.56° C | 41% | 1027.5 hPa | 0 mm | - | - | - |
| 1777631450 | 15.56° C | 41% | 1027.7 hPa | 0 mm | - | - | - |
| 1777630850 | 15.56° C | 40% | 1027.8 hPa | 0 mm | - | - | - |
| 1777630250 | 15.56° C | 39% | 1027.8 hPa | 0 mm | - | - | - |
| 1777629650 | 15.56° C | 39% | 1027.8 hPa | 0 mm | - | - | - |
| 1777629050 | 15.56° C | 38% | 1027.8 hPa | 0 mm | - | - | - |
* Rain latest hour (hover to see other rain measurements)
** Current wind speed in m/s (hover to see current wind gust speed)